Погода в Дассии

Греция     39°40′47″N   19°50′19″E
темп.,
°C
ветер,
м/с
пор.,
м/с
влажн.,
%
обл.,
%
осадки,
мм/ч
давл.,
гПа
погр.,
м
29 июня, ср
ср2900:00+24вюв22710 0.0 101419
03:00+24ю22701 0.0 101324
06:00+23ююв337954 0.0 101349
09:00+27ююв246297 0.0 1013370
12:00+31ююв24485 0.0 1013679
15:00+31ююв44504 0.0 1013866
18:00+30ю23510 0.0 1012594
21:00+26юв22670 0.0 101136
30 июня, чт
чт3000:00+24ююв33780 0.0 101249
03:00+23ююв22800 0.0 101231
06:00+23юв22810 0.0 101232
09:00+27ююв23610 0.0 1013376
12:00+30ююз23500 0.0 1013902
15:00+30зюз13510 0.0 10121013
18:00+29зсз12560 0.0 1012619
21:00+25ю00710 0.0 101213
1 июля, пт
пт100:00+24всв01740 0.0 101311
03:00+23ююв01760 0.0 101311
06:00+23с00740 0.0 101311
09:00+27ссз12560 0.0 1014252
12:00+30зсз33500 0.0 1014727
15:00+30сз34510 0.0 1013735
18:00+30зсз35510 0.0 1012497
21:00+25з33720 0.0 101233
2 июля, сб
сб200:00+23юз11780 0.0 101411
03:00+23вюв11760 0.0 101411
06:00+23вюв11720 0.0 101312
09:00+28зюз11520 0.0 1014211
12:00+30сз32460 0.0 1014682
15:00+31сз43470 0.0 1013715
18:00+29зюз345114 0.1 1014422
21:00+26юв336694 0.1 101353
3 июля, вс
вс300:00+25ссв33700 0.0 101436
03:00+25ссв11680 0.0 101411
06:00+24з22740 0.0 101418
09:00+29всв11520 0.0 1014250
12:00+32з32410 0.0 10151018
15:00+31з43450 0.0 1014973
18:00+30сз34524 0.0 1013537
21:00+26зсз237734 0.0 101339